Hourly Data Report for October 23, 2015

All times are specified in Local Standard Time (LST). Add 1 hour to adjust for Daylight Saving Time where and when it is observed.

POND INLET A
NUNAVUT

72°41'22.000" N
77°58'08.000" W
61.60 m
2403206
71095
YIO

Download Data

Hourly Data (October 2015)
Hourly Data Report for October 23, 2015
Temp Definition
°C
Dew Point Temp Definition
°C
Rel Hum Definition
%
Wind Dir Definition
10's deg

Wind Spd Definition
km/h
Visibility Definition
km
Stn Press Definition
kPa
Hmdx Definition


Wind Chill Definition


Weather Definition


TIME
00:00 Legend Double Dagger -11.4 -13.0 88 21 32 2.0 99.76   -22 Snow
01:00 Legend Double Dagger -11.5 -13.5 85 21 30 4.8 99.74   -21 Snow
02:00 Legend Double Dagger -11.3 -13.2 86 21 28 6.4 99.72   -21 Snow
03:00 Legend Double Dagger -11.3 -12.9 88 21 26 4.0 99.70   -21 Snow
04:00 Legend Double Dagger -11.0 -12.2 91 22 24 0.8 99.73   -20 Moderate Snow
05:00 Legend Double Dagger -10.9 -12.1 91 20 24 1.6 99.70   -20 Snow
06:00 Legend Double Dagger -10.9 -12.2 90 20 22 1.6 99.68   -19 Snow
07:00 Legend Double Dagger -11.3 -12.7 90 21 30 1.2 99.66   -21 Snow
08:00 Legend Double Dagger -11.5 -13.1 88 21 28 4.8 99.65   -21 Snow
09:00 Legend Double Dagger -11.7 -13.5 87 20 22 6.4 99.62   -20 Snow
10:00 Legend Double Dagger -11.8 -13.7 86 18 18 6.4 99.60   -20 Snow
11:00 Legend Double Dagger -13.4 -15.2 86 17 18 16.1 99.59   -22 LegendNANA
12:00 Legend Double Dagger -13.6 -16.3 81 19 18 16.1 99.56   -22 LegendNANA
13:00 Legend Double Dagger -15.1 -17.4 83 16 18 16.1 99.50   -24 LegendNANA
14:00 Legend Double Dagger -15.8 -18.9 78 14 18 16.1 99.46   -25 LegendNANA
15:00 Legend Double Dagger -17.0 -20.0 78 15 15 16.1 99.43   -25 LegendNANA
16:00 Legend Double Dagger -16.9 -19.3 82 13 13 16.1 99.39   -25 LegendNANA
17:00 Legend Double Dagger -16.6 -21.2 68 11 13 16.1 99.36   -24 LegendNANA
18:00 Legend Double Dagger -13.3 -17.7 70 8 9 16.1 99.31   -19 LegendNANA
19:00 Legend Double Dagger -13.7 -18.1 70 9 13 16.1 99.26   -21 LegendNANA
20:00 Legend Double Dagger -11.1 -14.9 74 7 15 9.7 99.24   -18 Haze
21:00 Legend Double Dagger -10.8 -14.0 78 8 21 6.4 99.18   -19 Snow
22:00 Legend Double Dagger -10.9 -15.5 69 5 26 16.1 99.15   -20 LegendNANA
23:00 Legend Double Dagger -11.1 -15.0 73 8 21 16.1 99.11   -19 LegendNANA

Notes on Data Quality.

Legend

  • E = Estimated
  • M = Missing
  • NA = Not Available
  • ‡ = Partner data that is not subject to review by the National Climate Archives
Date modified: